Location: *
(46.1833°N, 22.7667°E)
Time: 10:48:52
(UTC+00:00)

Cosmos 2219 - Pass Details

Date: 17 September 2019
Orbit: 834 x 860 km, 71.1° (Epoch: 15 October)

Event Time Altitude Azimuth Distance (km) Brightness Sun altitude
Rises 17:32:17 0° 173° (S) 3,418 6.1 -10.2°
Reaches altitude 10° 17:35:00 10° 162° (SSE) 2,488 5.3 -10.7°
Maximum altitude 17:39:53 30° 104° (ESE) 1,506 4.0 -11.5°
Drops below altitude 10° 17:44:46 10° 45° (NE) 2,502 5.4 -12.3°
Sets 17:47:30 0° 35° (NE) 3,441 6.2 -12.8°
